Probability
1 3 8 12 14 11 5 1 0 0 0 0 0 0 0 0 0 0 1 3 4 3 1 0 0 0 0 0 0 0 0 0 0 0 0 0 0 0 0 0 0 0 0
1 2 4 8 11 10 7 3 1 0 0 0 0 0 0 0 0 0 1 2 3 3 1 1 0 0 0 0 0 0 0 0 0 0 0 0 0 0 0 0 0 0 0
1 0 1 3 7 8 7 4 2 1 1 0 0 1 1 1 0 0 0 1 1 1 1 1 1 1 1 0 0 0 0 0 0 0 0 0 0 0 0 0 0 0 0
0 0 0 1 4 6 6 3 1 1 1 0 1 2 2 2 1 0 0 0 0 0 0 1 2 2 2 1 0 0 0 0 0 0 0 0 0 0 0 0 0 0 0
0 0 0 1 2 4 4 2 1 2 2 1 1 2 2 2 1 0 0 0 0 0 0 0 1 2 3 2 1 0 0 0 0 0 0 0 0 0 0 0 0 0 0
0 0 0 1 1 1 1 2 2 2 2 1 0 1 1 1 0 0 0 0 0 0 0 1 1 1 2 3 2 1 0 0 0 0 0 0 0 0 0 0 0 0 0
0 0 0 0 0 0 0 1 2 2 1 0 0 0 0 0 0 0 0 0 0 0 1 3 2 1 1 2 2 2 1 0 0 0 0 0 0 0 0 0 0 0 0
0 0 0 0 0 0 0 0 1 1 1 0 0 0 0 0 0 0 0 0 0 0 1 3 3 2 1 1 1 2 2 1 1 0 0 0 1 1 0 0 0 0 0
0 0 0 0 0 0 0 0 0 1 1 1 1 0 0 0 0 0 0 0 0 0 0 1 1 2 2 1 1 2 3 4 3 1 0 0 1 2 1 0 0 0 0
0 0 0 0 0 0 0 0 0 1 2 2 2 1 0 0 0 0 0 0 0 0 0 0 1 1 2 5 4 2 2 4 5 3 1 1 2 2 1 0 0 0 0
0 0 0 0 0 0 0 0 0 0 1 2 3 2 0 0 0 0 0 0 0 0 0 1 2 2 4 9 11 6 2 2 4 6 5 3 3 2 1 0 0 0 0
0 0 0 0 0 0 0 0 0 0 0 1 2 1 0 0 0 0 0 0 0 0 0 1 3 3 5 13 17 9 2 0 3 6 8 7 5 3 1 0 0 0 0
0 0 0 0 0 0 0 0 0 0 0 0 0 0 0 0 0 0 0 0 0 0 0 1 1 2 6 14 16 8 1 0 1 4 7 8 7 5 3 1 1 1 0
0 0 0 0 0 0 0 0 0 0 0 0 0 0 0 0 0 1 1 0 0 0 0 0 0 1 6 12 10 4 1 1 1 1 3 5 6 6 4 3 3 2 1
0 0 0 0 0 0 0 0 0 0 0 0 0 0 0 0 0 1 2 1 0 0 0 0 0 1 5 8 5 1 1 1 0 0 0 1 3 4 4 3 3 2 1
0 0 0 0 0 0 0 0 0 0 0 0 0 0 0 0 0 1 2 1 0 0 0 0 0 1 3 4 2 1 2 1 0 0 0 0 0 1 1 1 1 1 0
0 0 0 0 0 0 0 0 0 0 0 0 0 0 0 0 0 1 1 1 1 0 0 0 0 0 0 1 0 1 3 2 1 0 0 0 0 0 0 0 0 0 0
0 0 0 0 0 0 0 0 0 0 0 0 0 0 1 0 0 1 1 1 1 0 1 1 1 0 0 0 0 1 3 3 2 0 0 0 0 0 0 0 0 0 0
0 0 0 0 0 0 0 0 0 0 0 0 0 0 1 1 0 0 1 1 0 0 1 1 1 1 1 1 0 1 1 2 1 0 0 0 0 0 0 0 0 0 0
0 0 0 0 0 0 0 0 0 0 0 0 0 0 0 1 0 0 0 0 0 0 1 1 0 1 2 2 1 1 0 0 0 0 0 0 0 0 0 0 0 0 0
0 0 0 0 0 0 0 0 0 0 0 0 0 0 0 0 0 0 0 0 0 0 1 0 0 0 1 2 2 1 0 0 0 0 0 0 0 0 0 0 0 0 0
0 0 0 0 0 0 0 0 0 0 0 0 0 0 0 0 0 0 0 0 0 0 0 0 0 0 0 1 2 1 0 0 0 1 1 1 0 0 0 0 0 0 0
0 0 0 0 0 0 0 0 0 0 0 0 0 0 0 0 0 0 0 0 0 0 0 0 0 0 0 1 1 1 0 0 0 1 1 1 0 0 0 0 0 0 0
0 0 0 0 0 0 0 0 0 0 0 0 0 0 0 0 0 0 0 0 0 0 0 0 0 0 0 0 0 0 0 0 0 0 0 1 1 0 0 0 0 0 0
0 0 0 0 0 0 0 0 0 0 0 0 0 0 0 0 0 0 0 0 0 0 0 0 0 0 0 0 0 0 0 0 0 0 0 0 0 0 0 0 0 0 0
0 0 0 0 0 0 0 0 0 0 0 0 0 0 0 0 0 0 0 0 0 0 0 0 0 0 0 0 0 0 0 0 0 0 0 0 0 0 0 0 0 0 0
Wind_Speed
3 3 2 2 3 3 3 3 3 4 5 6 6 6 5 5 5 5 5 12 12 11 10 10 9 8 7 6 7 7 8 8 8 10 10 10 10 10 10 9 9 9 9
2 3 3 3 3 3 3 3 4 5 4 4 6 6 4 3 3 6 7 8 12 11 11 11 11 10 9 8 8 8 8 8 9 10 10 10 10 10 10 9 9 8 8
2 3 3 3 3 3 4 4 5 4 5 5 6 5 4 4 4 4 7 7 7 10 11 12 12 11 11 10 9 9 9 9 9 10 10 10 9 9 9 9 8 8 7
4 3 2 3 3 3 3 4 4 4 5 4 4 4 4 4 5 4 4 7 7 7 10 13 12 11 11 11 11 10 11 10 10 10 10 10 9 9 9 9 8 8 7
6 4 2 2 3 2 3 4 4 4 4 5 5 4 4 4 4 5 4 6 7 8 8 11 13 13 12 12 12 12 12 12 12 12 11 10 9 9 9 8 8 8 7
5 5 4 4 3 2 2 3 4 4 3 4 5 5 4 4 4 4 4 4 4 8 10 10 9 9 12 13 12 13 14 14 13 13 12 12 10 10 9 9 8 8 7
5 4 4 4 3 2 3 4 3 4 3 3 2 3 3 4 5 4 4 3 4 4 7 10 9 8 7 12 13 13 15 15 15 14 14 13 12 10 10 10 9 8 7
4 5 5 4 3 3 4 4 3 2 2 3 3 2 2 3 4 6 4 4 4 3 5 9 9 10 9 7 10 14 14 14 15 15 15 14 13 12 11 11 10 9 8
4 3 4 4 4 3 3 4 3 4 3 3 4 3 3 4 2 3 5 5 5 3 4 5 7 8 11 9 10 13 15 14 15 16 15 15 14 13 12 11 10 9 8
4 3 3 4 4 3 3 4 4 3 3 3 3 4 3 2 2 2 2 4 4 4 4 4 5 6 8 9 11 16 18 16 15 17 16 16 15 14 13 12 11 10 9
4 4 3 4 4 3 3 4 4 4 3 4 3 2 3 3 3 2 2 3 3 4 4 4 3 4 5 7 9 15 20 18 16 16 16 16 16 16 15 13 12 11 11
3 4 5 4 4 3 4 4 3 4 4 4 3 3 3 3 3 3 3 3 3 3 4 4 4 4 4 5 11 18 21 19 17 16 14 14 15 16 16 15 14 13 12
3 4 5 4 4 3 4 4 4 4 4 5 4 4 4 4 3 3 3 3 3 2 2 3 4 4 4 5 6 18 19 19 18 17 15 14 13 14 15 16 15 14 14
3 4 5 5 5 4 4 3 3 4 4 4 5 4 4 4 4 4 4 3 3 3 3 4 3 4 4 4 7 16 13 19 18 17 16 15 14 13 13 14 14 14 14
4 5 5 5 5 4 4 3 3 4 4 3 4 5 4 4 4 4 4 4 4 4 5 5 4 3 3 3 9 9 9 17 19 18 17 16 15 14 14 13 13 12 11
5 5 5 5 5 4 4 3 3 4 4 4 4 4 5 4 4 4 4 4 4 4 4 4 5 3 3 3 10 9 9 17 19 18 17 17 16 15 14 14 13 12 12
5 5 5 5 5 5 4 4 4 5 4 4 4 4 5 5 4 4 4 4 4 4 5 3 3 3 4 4 5 5 6 8 10 17 18 17 16 16 15 15 14 13 13
5 5 5 5 5 5 5 5 5 5 5 5 5 4 4 4 4 4 4 5 4 5 4 5 3 3 5 4 4 5 5 7 7 14 17 17 17 16 16 15 15 14 14
5 5 5 5 5 5 5 5 5 6 6 5 5 5 4 4 4 3 3 4 4 4 4 4 3 3 3 3 3 3 4 4 6 10 15 15 16 17 16 16 15 15 14
5 5 5 5 5 5 5 5 6 7 6 6 5 4 4 3 3 3 3 3 4 4 4 4 3 3 3 3 4 4 4 4 4 6 8 10 13 15 16 16 16 16 15
6 5 5 5 5 4 4 5 5 7 7 7 6 5 4 4 5 4 3 3 3 3 3 4 4 3 4 4 5 4 5 4 3 4 5 6 7 7 9 13 16 17 16
5 4 5 5 4 4 5 6 6 6 7 7 6 5 5 4 6 6 6 6 6 5 4 4 4 5 5 5 5 5 5 5 4 4 5 5 6 7 7 7 13 17 17
4 4 5 5 4 3 5 7 9 6 7 7 6 5 5 5 4 3 5 6 7 9 9 6 5 6 5 5 6 7 6 5 4 5 5 5 5 6 5 7 16 17 18
4 4 4 5 4 4 4 5 9 7 7 6 5 4 4 4 3 4 4 4 5 5 6 6 6 5 5 4 6 6 6 4 3 3 4 4 4 4 4 6 15 17 17
4 4 4 4 4 3 1 3 6 5 5 6 5 4 4 3 5 6 4 5 5 4 4 6 6 6 7 7 6 5 6 6 5 3 2 4 4 4 3 4 8 15 15
4 5 4 4 5 3 2 1 4 3 5 5 4 4 4 4 6 6 4 5 5 4 3 3 3 5 6 7 10 8 7 7 5 4 4 4 5 4 4 2 4 7 8
Wind_Direction
238 252 243 230 225 205 201 219 227 240 258 273 271 258 243 218 195 161 155 166 166 173 179 182 181 178 177 173 167 163 159 155 149 143 141 139 137 132 131 131 129 127 123
235 233 240 236 229 216 205 206 224 235 242 264 271 272 283 258 216 162 158 171 174 176 183 187 185 183 182 180 174 170 167 162 156 149 147 143 142 141 140 139 136 135 131
271 261 245 237 231 221 213 210 217 229 236 246 261 270 272 270 255 196 167 169 176 183 186 188 188 186 187 187 180 175 172 167 162 158 155 151 150 150 149 147 144 142 137
311 292 273 256 239 223 214 212 212 220 228 233 248 256 264 271 260 247 188 175 173 182 191 192 189 188 189 189 185 182 177 171 169 166 162 161 160 159 158 158 154 150 146
334 321 298 281 267 241 224 230 216 210 222 225 232 240 242 253 260 253 225 201 184 175 180 191 189 188 188 190 190 188 182 179 178 176 172 169 168 169 167 164 162 162 159
329 328 312 298 287 264 247 239 235 221 216 217 229 237 232 241 252 254 247 226 203 185 178 177 182 190 190 189 192 192 188 186 185 184 180 179 177 175 174 173 171 171 171
332 318 310 315 311 282 262 249 239 232 224 208 209 241 254 244 244 246 250 241 221 197 172 170 177 179 187 192 191 192 192 191 190 190 188 185 183 181 181 181 181 182 183
336 331 329 314 304 298 284 265 245 232 238 203 190 181 230 249 243 234 235 236 228 202 185 181 183 178 178 178 191 192 192 192 193 194 193 190 187 187 188 189 189 190 190
327 326 325 318 307 301 288 278 258 232 235 231 201 186 187 212 225 239 230 232 228 215 203 192 197 188 179 175 180 190 189 189 194 197 196 194 191 191 192 192 193 194 191
335 322 320 319 309 300 292 286 274 246 224 238 234 227 232 218 181 230 253 234 227 224 217 215 210 199 185 175 176 181 186 187 193 198 198 197 195 195 194 195 196 195 191
328 336 334 320 312 304 301 297 299 278 239 225 225 220 232 243 231 205 236 245 239 231 217 215 221 217 199 172 170 178 183 186 190 195 198 198 197 197 197 196 197 196 193
328 351 343 332 316 315 309 298 286 278 262 244 233 220 209 207 210 207 218 225 232 244 232 221 214 213 211 182 178 175 180 184 187 190 194 197 198 197 197 198 198 196 194
339 346 345 327 319 311 305 302 293 280 266 255 240 229 223 223 223 216 215 218 226 246 250 241 224 203 208 191 175 172 180 181 185 187 190 192 193 195 197 198 197 196 193
328 332 333 318 313 311 314 314 303 292 281 269 260 245 230 229 222 218 210 199 211 233 236 241 243 218 204 191 175 173 180 182 185 187 188 189 189 190 191 195 197 195 193
323 334 318 316 317 322 320 315 298 298 300 281 265 258 243 233 231 225 220 203 193 210 228 226 228 234 217 194 169 182 177 186 186 187 187 186 186 186 188 190 191 188 186
318 314 317 319 320 328 330 326 310 298 295 284 268 256 248 233 229 227 223 220 211 208 224 219 215 215 218 204 183 191 185 185 188 187 187 186 186 186 186 183 180 178 177
324 325 329 331 336 338 333 332 321 316 308 299 292 279 266 247 230 229 224 220 221 214 229 240 220 211 211 205 189 196 179 175 188 189 187 186 185 185 183 180 177 175 173
324 324 331 336 340 339 335 332 327 325 313 304 301 298 285 272 243 228 220 219 219 214 213 229 228 210 214 203 189 195 190 180 182 189 189 187 185 183 182 179 175 173 172
330 329 330 338 336 335 337 338 336 324 318 311 308 303 299 294 270 245 228 222 222 225 213 215 223 210 210 196 191 201 197 182 185 186 188 187 184 182 179 177 174 172 171
333 328 335 338 334 333 338 352 343 329 322 316 309 302 297 296 287 274 257 242 230 224 219 216 218 206 200 189 177 189 199 191 185 175 180 180 180 178 177 174 173 170 167
327 327 332 329 330 330 355 359 339 327 322 317 313 306 298 292 291 276 265 256 244 229 220 215 220 210 202 185 189 182 191 181 187 169 162 170 169 174 177 176 174 171 167
304 315 318 317 323 335 344 340 332 318 311 308 309 306 297 283 282 280 268 258 245 238 229 219 220 219 216 204 189 181 177 178 191 177 166 171 169 174 175 176 174 171 168
308 317 311 313 316 329 322 329 332 318 298 297 299 300 303 306 310 299 291 275 260 249 236 225 225 223 211 200 189 188 187 183 181 166 156 168 167 174 169 170 169 169 168
304 303 302 308 314 316 320 330 331 311 299 299 300 298 300 309 329 334 312 292 273 253 238 230 229 228 215 197 190 189 181 162 134 151 151 157 159 152 143 155 166 165 165
282 285 289 295 298 299 309 322 333 310 306 312 324 328 325 325 329 333 307 291 286 273 250 234 224 218 209 198 180 164 170 169 166 167 153 141 142 125 126 150 161 160 158
269 275 276 273 277 277 225 270 329 310 315 319 322 326 349 343 329 324 306 294 288 282 269 244 223 213 206 196 191 187 182 179 161 161 167 146 143 135 128 126 149 158 154